Winter Park, USA 16 day weather forecast

Slopes altitude range 2745 m - 3675m

Number of lifts: 22 Pistes: 143km

In some cases the lift and piste totals shown are for the ski domain (e.g. Three Valleys) rather than individual resort (e.g. Courchevel)

Overview

The 16 day weather forecast is fully updated 4 times every day.

    • Sun 17 FEB 2019
    • Sun 17
    • -15C -14C
    • Mon 18 FEB 2019
    • Mon 18
    • -17C -15C
    • Tue 19 FEB 2019
    • Tue 19
    • -16C -15C
    • Wed 20 FEB 2019
    • Wed 20
    • -20C -17C
    • Thu 21 FEB 2019
    • Thu 21
    • -16C -14C
    • Fri 22 FEB 2019
    • Fri 22
    • -14C -14C
    • Sat 23 FEB 2019
    • Sat 23
    • -18C -17C
    • Sun 24 FEB 2019
    • Sun 24
    • -14C -13C
    • Mon 25 FEB 2019
    • Mon 25
    • -2C -1C
    • Tue 26 FEB 2019
    • Tue 26
    • -14C -5C
    • Wed 27 FEB 2019
    • Wed 27
    • -12C -4C
    • Thu 28 FEB 2019
    • Thu 28
    • -8C -3C
    • Fri 01 MAR 2019
    • Fri 01
    • -5C -2C
    • Sat 02 MAR 2019
    • Sat 02
    • -6C 4C
    • Sun 03 MAR 2019
    • Sun 03
    • -3C 2C
    • Mon 04 MAR 2019
    • Mon 04
    • -5C 2C

Date:

Time Type 0°C level Temp Chill Snow Cloud Speed Gust Dir Press
12:00 452m -14°C -14_10 0cm 11% 10mph 24mph 1019mB
15:00 608m -14°C -14_9 0cm 5% 9mph 15mph 1020mB
18:00 1608m -7°C -7_3 0cm 31% 3mph 7mph 1016mB
21:00 1759m -8°C -8_1 1cm 91% 1mph 3mph 1014mB
0:00 1142m -11°C -11_4 1cm 95% 4mph 5mph 1016mB
3:00 708m -14°C -14_7 2cm 100% 7mph 10mph 1022mB
6:00 455m -15°C -15_6 3cm 100% 6mph 9mph 1025mB
9:00 265m -17°C -17_5 1cm 100% 5mph 8mph 1026mB
12:00 154m -15°C -15_5 1cm 100% 5mph 8mph 1026mB
15:00 209m -17°C -17_4 1cm 100% 4mph 6mph 1027mB
18:00 793m -13°C -13_6 1cm 100% 6mph 7mph 1023mB
21:00 1059m -13°C -13_6 1cm 100% 6mph 8mph 1019mB
0:00 832m -13°C -13_5 1cm 100% 5mph 7mph 1020mB
3:00 592m -14°C -14_3 1cm 100% 3mph 5mph 1023mB
6:00 500m -15°C -15_4 2cm 100% 4mph 6mph 1023mB
9:00 507m -15°C -15_5 1cm 100% 5mph 8mph 1022mB
12:00 453m -15°C -15_4 2cm 100% 4mph 6mph 1020mB
15:00 464m -15°C -15_4 1cm 100% 4mph 6mph 1020mB
18:00 993m -12°C -12_5 1cm 100% 5mph 5mph 1016mB
21:00 1182m -12°C -12_5 1cm 100% 5mph 6mph 1011mB
0:00 979m -12°C -12_2 2cm 100% 2mph 3mph 1013mB
3:00 632m -14°C -14_3 1cm 100% 3mph 4mph 1017mB
6:00 186m -17°C -17_7 1cm 100% 7mph 12mph 1019mB
9:00 0m -19°C -19_10 0cm 100% 10mph 19mph 1019mB
12:00 0m -17°C -17_12 0cm 71% 12mph 31mph 1019mB
15:00 201m -17°C -17_15 0cm 23% 15mph 36mph 1020mB
18:00 1129m -11°C -11_15 0cm 11% 15mph 27mph 1013mB
21:00 1579m -11°C -11_8 0cm 12% 8mph 13mph 1008mB
0:00 1240m -11°C -11_2 0cm 46% 2mph 2mph 1009mB
3:00 576m -14°C -14_3 0cm 97% 3mph 4mph 1015mB
6:00 614m -14°C -14_4 1cm 98% 4mph 4mph 1016mB
9:00 447m -15°C -15_4 1cm 99% 4mph 4mph 1016mB
12:00 311m -14°C -14_4 1cm 100% 4mph 5mph 1017mB
15:00 707m -14°C -14_2 0cm 100% 2mph 2mph 1016mB
18:00 1504m -8°C -8_5 0cm 100% 5mph 4mph 1010mB
21:00 1446m -9°C -9_6 1cm 99% 6mph 8mph 1007mB
0:00 1015m -12°C -12_6 2cm 99% 6mph 8mph 1009mB
3:00 766m -13°C -13_2 2cm 100% 2mph 4mph 1014mB
6:00 589m -14°C -14_2 2cm 99% 2mph 3mph 1015mB
9:00 667m -14°C -14_4 1cm 100% 4mph 7mph 1016mB
12:00 627m -14°C -14_4 1cm 100% 4mph 7mph 1017mB
15:00 642m -14°C -14_4 1cm 100% 4mph 6mph 1019mB
18:00 1101m -11°C -11_3 2cm 100% 3mph 3mph 1019mB
21:00 1545m -11°C -11_1 1cm 100% 1mph 3mph 1018mB
0:00 1181m -11°C -11_0 1cm 99% 0mph 2mph 1021mB
3:00 293m -16°C -16_7 1cm 73% 7mph 7mph 1028mB
6:00 104m -18°C -18_9 0cm 41% 9mph 12mph 1030mB
9:00 115m -18°C -18_11 0cm 0% 11mph 15mph 1031mB
12:00 80m -17°C -17_10 0cm 0% 10mph 14mph 1031mB
15:00 600m -14°C -14_10 0cm 0% 10mph 15mph 1030mB
18:00 2029m -5°C -5_8 0cm 0% 8mph 15mph 1021mB
21:00 2284m -5°C -5_8 0cm 11% 8mph 14mph 1017mB
0:00 1791m -6°C -6_4 0cm 54% 4mph 7mph 1018mB
3:00 964m -12°C -12_9 0cm 68% 9mph 12mph 1024mB
6:00 724m -13°C -13_10 0cm 34% 10mph 14mph 1025mB
9:00 625m -14°C -14_11 0cm 19% 11mph 17mph 1026mB
12:00 579m -13°C -13_11 0cm 40% 11mph 17mph 1025mB
15:00 1031m -11°C -11_10 0cm 85% 10mph 17mph 1023mB
18:00 2360m -3°C -3_8 0cm 84% 8mph 18mph 1015mB
21:00 2432m 4°C 4_12 0cm 70% 12mph 14mph 1010mB
0:00 2433m 4°C 4_7 0cm 44% 7mph 9mph 1011mB
3:00 1432m -1°C -1_3 0cm 63% 3mph 4mph 1014mB
6:00 1445m -1°C -1_5 0cm 78% 5mph 6mph 1014mB
9:00 1236m -2°C -2_2 0cm 100% 2mph 3mph 1014mB
12:00 1230m -1°C -1_3 0cm 100% 3mph 4mph 1012mB
15:00 1482m 0°C 0_4 0cm 82% 4mph 7mph 1011mB
18:00 1582m 1°C 1_10 0cm 57% 10mph 10mph 1006mB
21:00 1566m 0°C 0_8 1cm 62% 8mph 9mph 1003mB
0:00 1215m -2°C -2_8 2cm 81% 8mph 10mph 1005mB
3:00 1087m -3°C -3_7 2cm 100% 7mph 11mph 1008mB
6:00 846m -5°C -5_12 5cm 100% 12mph 17mph 1011mB
9:00 10m -10°C -10_18 2cm 100% 18mph 26mph 1016mB
12:00 0m -5°C -5_14 3cm 100% 14mph 20mph 1023mB
15:00 0m -14°C -14_11 1cm 100% 11mph 14mph 1030mB
18:00 0m -13°C -13_11 1cm 100% 11mph 12mph 1029mB
21:00 31m -13°C -13_12 0cm 91% 12mph 13mph 1026mB
0:00 2m -13°C -13_8 0cm 95% 8mph 11mph 1028mB
3:00 0m -12°C -12_6 1cm 96% 6mph 10mph 1035mB
6:00 0m -13°C -13_9 1cm 98% 9mph 13mph 1037mB
Afternoon 0mm 0 1010m -4°C -4_11 0cm 3% 11mph 13mph 1027mB
Morning 0mm 0 655m -6°C -6_6 0cm 84% 6mph 8mph 1032mB
Afternoon 0mm 0 1105m -3°C -3_9 0cm 39% 9mph 10mph 1027mB
Morning 0mm 0 926m -5°C -5_3 0cm 63% 3mph 4mph 1026mB
Afternoon 0mm 0 1349m -2°C -2_11 0cm 55% 11mph 13mph 1024mB
Morning 0mm 0 737m -6°C -6_4 0cm 37% 4mph 5mph 1032mB
Afternoon 0mm 0 2176m 4°C 4_6 0cm 10% 6mph 8mph 1011mB
Morning 0mm 0 2545m 2°C 2_4 0cm 80% 4mph 5mph 1003mB
Afternoon 0mm 0 1388m 2°C 2_12 0cm 97% 12mph 18mph 999mB
Morning 0mm 0 1059m -4°C -4_5 0cm 67% 5mph 8mph 1009mB
Afternoon 0mm 0 1727m 2°C 2_8 0cm 63% 8mph 8mph 1001mB
Morning 0.015625mm 0.625 1874m 0°C 0_4 5cm 85% 4mph 5mph 1000mB

16 day outlook at a glance

Forecast issued: 2/17/2019 1:58:30 PM

Chat

Your comments and questions. In a resort? Let us know what it's like!


Characters left 250

For terms and conditions see Readers Comments on the Cookie and privacy policy page.